This demonstration page uses our WeatherBlox Daily Observations layout. Learn more.

Left ArrowRight Arrow

Hourly Observations for January 10, 2020

Temp ( °F °C ) Dew Point ( °F °C ) Humidity (%) Winds ( mph kmh ) Pressure ( in mb ) Visibility ( mi km ) Precip ( " mm )
12:53 am 00:53 Mostly Clear 0 -17.8 -4 -20 83 83 SSW 3 6 30.36 1028 10 16 0.00 0.00
1:53 am 01:53 Mostly Cloudy 1 -17.2 -4 -20 79 79 SSW 5 7 30.36 1028 10 16 0.00 0.00
2:53 am 02:53 Mostly Clear -1 -18.3 -6 -21.1 79 79 WSW 6 9 30.37 1029 10 16 0.00 0.00
3:53 am 03:53 Clear 1 -17.2 -5 -20.6 75 75 Calm 30.37 1029 10 16 0.00 0.00
4:53 am 04:53 Clear -2 -18.9 -7 -21.7 79 79 S 5 7 30.37 1028 10 16 0.00 0.00
5:53 am 05:53 Clear -1 -18.3 -5 -20.6 82 82 SSW 6 9 30.37 1028 10 16 0.00 0.00
6:53 am 06:53 Clear -2 -18.9 -7 -21.7 79 79 Calm 30.37 1028 10 16 0.00 0.00
7:53 am 07:53 Clear -1 -18.3 -5 -20.6 82 82 E 6 9 30.36 1028 10 16 0.00 0.00
8:53 am 08:53 Sunny 1 -17.2 -4 -20 79 79 E 8 13 30.34 1027 10 16 0.00 0.00
9:53 am 09:53 Sunny 5 -15 -1 -18.3 76 76 E 9 15 30.31 1026 10 16 0.00 0.00
10:53 am 10:53 Sunny 9 -12.8 3 -16.1 77 77 E 10 17 30.26 1025 10 16 0.00 0.00
11:53 am 11:53 Sunny 10 -12.2 5 -15 80 80 E 9 15 30.21 1023 10 16 0.00 0.00
12:53 pm 12:53 Sunny 14 -10 7 -13.9 73 73 E 8 13 30.15 1021 10 16 0.00 0.00
1:53 pm 13:53 Sunny 18 -7.8 9 -12.8 68 68 E 6 9 30.10 1019 10 16 0.00 0.00
2:53 pm 14:53 Sunny 19 -7.2 10 -12.2 68 68 ENE 7 11 30.05 1018 10 16 0.00 0.00
3:53 pm 15:53 Sunny 20 -6.7 11 -11.7 68 68 E 7 11 30.01 1016 10 16 0.00 0.00
4:53 pm 16:53 Mostly Clear 21 -6.1 12 -11.1 68 68 ENE 7 11 29.96 1015 10 16 0.00 0.00
5:53 pm 17:53 Clear 19 -7.2 11 -11.7 71 71 NE 7 11 29.93 1014 10 16 0.00 0.00
6:53 pm 18:53 Clear 20 -6.7 11 -11.7 68 68 E 6 9 29.89 1012 10 16 0.00 0.00
7:53 pm 19:53 Cloudy 23 -5 12 -11.1 63 63 NE 9 15 29.85 1011 10 16 0.00 0.00
8:53 pm 20:53 Cloudy 23 -5 13 -10.6 65 65 ENE 7 11 29.83 1010 10 16 0.00 0.00
9:53 pm 21:53 Cloudy 20 -6.7 12 -11.1 71 71 E 7 11 29.82 1010 10 16 0.00 0.00
10:53 pm 22:53 Cloudy 20 -6.7 12 -11.1 71 71 E 7 11 29.79 1009 10 16 0.00 0.00
11:53 pm 23:53 Cloudy 20 -6.7 13 -10.6 74 74 E 9 15 29.77 1008 10 16 0.00 0.00

Powered by AerisWeather